Regional Weather Roundup
Issued by NWS

Home | Current Version | Previous Version | Text Only | Print | Product List | Glossary Off
Versions: 1 2 3 4 5 6 7 8 9 10 11 12 13 14 15 16 17 18 19 20 21 22 23 24 25 26 27 28 29 30 31 32 33 34 35 36 37 38 39 40 41 42 43 44 45 46 47 48 49 50

000
ASUS43 KLOT 010509
RWRIL

ILLINOIS REGIONAL WEATHER ROUNDUP
NATIONAL WEATHER SERVICE CHICAGO/ROMEOVILLE IL
1200 AM CDT SAT OCT 01 2016

NOTE: "FAIR" INDICATES FEW OR NO CLOUDS BELOW 12,000 FEET WITH NO
SIGNIFICANT WEATHER AND/OR OBSTRUCTIONS TO VISIBILITY.

* THESE STATIONS ARE NOT UNDER NWS QUALITY CONTROL. THEY ALSO MAY NOT
  REPORT WEATHER SUCH AS PRECIPITATION OR FOG.

ILZ001-002-007-009-015-016-024-010600-
NORTHWEST ILLINOIS

CITY           SKY/WX    TMP DP  RH WIND       PRES   REMARKS
MOLINE         CLOUDY    62  58  86 N7        30.08F
STERLING*      CLOUDY    60  58  92 N6        30.08F
SAVANNA*       CLOUDY    60  58  91 N6        30.08F
$$

ILZ003-004-008-010-011-017-018-010600-
NORTH CENTRAL ILLINOIS

CITY           SKY/WX    TMP DP  RH WIND       PRES   REMARKS
ROCKFORD       LGT RAIN  60  59  96 N8        30.08F FOG
FREEPORT*      CLOUDY    59  57  92 N5        30.11S
ROCHELLE*      CLOUDY    59  59  99 N7        30.07S
DE KALB*       CLOUDY    60  59  97 NE6       30.07S
$$

ILZ005-006-012>014-019>023-010600-
NORTHEAST ILLINOIS

CITY           SKY/WX    TMP DP  RH WIND       PRES   REMARKS
CHICAGO-OHARE  CLOUDY    62  58  86 NE10      30.05S
CHICAGO-MIDWAY CLOUDY    63  57  81 E9        30.05R
AURORA         CLOUDY    62  59  90 N6        30.05S
LANSING*       CLOUDY    60  60  98 E6        30.05R
JOLIET*        CLOUDY    63  60  89 NE5       30.04S
WAUKEGAN       CLOUDY    61  59  93 E10       30.06S
DUPAGE AIRPORT CLOUDY    61  58  90 NE6       30.05S
KANKAKEE*      LGT RAIN  59  59  98 CALM      30.04S
WHEELING       CLOUDY    61  58  90 E6        30.07S
MORRIS*        CLOUDY    62  58  87 CALM      30.03F
ROMEOVILLE*    CLOUDY    61  60  97 E6        30.05S
NORTHERLY ISL    N/A     61  57  87 E10         N/A
$$

LMZ740>746-010600-
SOUTHERN LAKE MICHIGAN

STATION/POSITION SKY/WX   TEMP    WIND        PRES    VSBY  WAVE
                          AIR SEA DIR/SP/G                  HT/PER
                          (F)     (DEG/KT/KT) (MB)    (MI)  (FT/S)
SOUTHERN BUOY              63 67   90/ 17/ 21 1017.6F         4/ 7
WILMETTE HARBOR            61 59  120/ 10/ 14   N/A           5/ 6
HARRISON CRIB              63      90/ 16/ 18   N/A
BURNHAM HARBOR             61      80/  9/ 12   N/A
CALUMET HARBOR             62      60/  8/ 10 1017.1R
BURNS HARBOR               60      90/  7/ 10 1017.6S
MICHIGAN CITY              59      80/  8/ 10   N/A
MICHIGAN CITY 6N           61 64  100/ 12/ 16   N/A           4/ 6
ST. JOSEPH                 57 50   80/  6/  8 1018.2          3/ 6
$$

ILZ025>027-034>036-040-047-049-050-058-095>099-010600-
WEST-CENTRAL ILLINOIS

CITY           SKY/WX    TMP DP  RH WIND       PRES   REMARKS
QUINCY         CLOUDY    61  58  90 NW8       30.07F
GALESBURG*     CLOUDY    60  58  94 N8        30.07F
MACOMB*        CLOUDY    61  59  95 N9        30.09S
JACKSONVILLE*  CLOUDY    61  60  96 NW5       30.05S
PITTSFIELD*    CLOUDY    61  60  94 NW8       30.07F
$$

ILZ028>032-037-038-041>044-048-051>054-059>061-010600-
CENTRAL ILLINOIS

CITY           SKY/WX    TMP DP  RH WIND       PRES   REMARKS
PONTIAC        DRIZZLE   61  61 100 NE7       30.04S
BLOOMINGTON    CLOUDY    60  59  96 N9        30.03F
DECATUR        CLOUDY    63  60  90 N12       30.01S
PEORIA         CLOUDY    62  61  96 N6        30.04F
LACON*         CLOUDY    61  59  94 N3        30.04S
LINCOLN*       CLOUDY    62  62 100 N5        30.02S
SPRINGFIELD    LGT RAIN  62  61  96 N9        30.03S FOG
TAYLORVILLE    CLOUDY    61  60  99 N5        30.01F FOG
$$

ILZ033-039-045-046-055>057-062-063-010600-
EAST-CENTRAL ILLINOIS

CITY           SKY/WX    TMP DP  RH WIND       PRES   REMARKS
CHAMPAIGN      CLOUDY    61  59  93 E5        30.01S
RANTOUL*       CLOUDY    63  61  96 NE7       30.01S
MATTOON        LGT RAIN  58  57  97 CALM      29.98F
PARIS*         CLOUDY    59  59 100 CALM      30.00S FOG
$$

ILZ079-100>102-010600-
SOUTHWEST ILLINOIS

CITY           SKY/WX    TMP DP  RH WIND       PRES   REMARKS
ALTON          CLOUDY    61  60  97 NW5       30.03F
BELLEVILLE     CLEAR     62  62 100 NW9       30.01F
CAHOKIA*       CLOUDY    63  60  90 NW8       30.03F
SPARTA*        CLOUDY    61  60  97 NW6       30.04S
$$

ILZ064>066-069>071-074>076-080>082-084>086-088>090-092>094-010600-
SOUTH-CENTRAL ILLINOIS

CITY           SKY/WX    TMP DP  RH WIND       PRES   REMARKS
CARBONDALE     CLOUDY    61  61 100 W5        30.02S
CAIRO*         MOCLDY    61  59  94 W6        30.03F
EFFINGHAM*     LGT RAIN  61  61 100 W3        30.01S
MARION         CLOUDY    63  63 100 CALM      30.02S FOG
MT. VERNON     CLOUDY    63  55  77 CALM      30.01S
CENTRALIA*     CLOUDY    62  62 100 NW5       30.00S FOG
SALEM*         CLOUDY    63  61  94 CALM      30.00S FOG
METROPOLIS*    DRIZZLE   62  60  95 W5        30.02F
$$

ILZ067-068-072-073-078-083-087-091-010600-
SOUTHEAST ILLINOIS

CITY           SKY/WX    TMP DP  RH WIND       PRES   REMARKS
LAWRENCEVILLE  PTCLDY    58  56  93 E3        30.00F
FLORA*         LGT RAIN  62  62  97 CALM      29.99F
FAIRFIELD*     CLOUDY    59  59 100 CALM      29.99F
HARRISBURG*    CLOUDY    57  57 100 CALM      30.01S
ROBINSON*      CLOUDY    56  56 100 S3        30.01F
CARMI*         CLOUDY    57  57 100 CALM      30.00S
$$

ABBREVIATIONS USED IN REMARKS
   TC - TEMPERATURE IN CELSIUS
  WCI - WIND CHILL INDEX
   HX - HEAT INDEX
  VSB - VISIBILITY
$$





USA.gov is the U.S. government's official web portal to all federal, state and local government web resources and services.